Other Surface Observations
Issued by NWS Tucson, AZ

Home | Current Version | Previous Version | Text Only | Print | Product List | Glossary On
Versions: 1 2 3 4 5 6 7 8 9 10 11 12 13 14 15 16 17 18 19 20 21 22 23 24 25 26 27 28 29 30 31 32 33 34 35 36 37 38 39 40 41 42 43 44 45 46 47 48 49 50
000
SXUS55 KTWC 220516
OSOTWC

WEATHER ROUNDUP FOR SOUTHEAST ARIZONA
NATIONAL WEATHER SERVICE TUCSON AZ
1015 PM MST SUN SEP 21 2014

AZZ504>506-514-220615-
LOCATION       SKY/WX    TMP DP  RH WIND       PRES   REMARKS
TUCSON         CLEAR     85  62  46 SE15      30.04R
DAVIS-MONTHAN  PTCLDY    80  64  58 SE21      30.03R
CHILDRENS PARK N/A       84  63  49 SE5               PIMA CO DEQ
ALVERNON/22ND  N/A      N/A N/A N/A N/A               PIMA CO DEQ
CHERRY/GLENN   N/A      N/A N/A N/A N/A               PIMA CO DEQ
TANGERINE      N/A       83 N/A N/A E3                PIMA CO DEQ
CONTL RANCH    N/A       86  57  38 SE1               PIMA CO DEQ
GRANT/1ST      N/A       84  62  48 SE5               PIMA CO DEQ
CRAYCROFT/22ND N/A      N/A N/A N/A N/A               PIMA CO DEQ
GOLFLINKS/KOLB N/A       81  64  56 E5                PIMA CO DEQ
AJO/12TH       N/A       84  63  49 E5                PIMA CO DEQ
SAGUARO EAST   N/A      N/A N/A N/A N/A               PIMA CO DEQ
FAIRGROUNDS    N/A       79 N/A N/A SE10              PIMA CO DEQ
SAGUARO        N/A       80  61  53 NW2               *SABINO CYN
SAN CARLOS     N/A       80  62  55 SW3G10            *SAN CARLOS
GREEN VALLEY   N/A       81  67  62 S4                PIMA CO DEQ
HORSE CAMP CYN N/A       73  62  69 E10G14            *ARAVAIPA CYN
RINCON MTNS    N/A       58  57  98 E4                *NR MANNING CAMP
$$

AZZ509>511-220615-
LOCATION       SKY/WX    TMP DP  RH WIND       PRES   REMARKS
SAFFORD        CLOUDY    76  69  79 NW3       30.06S
STRAY HORSE    N/A       58  54  85 N3                *
TRAIL CABIN    N/A       65  59  80 CALM              *N OF GRANVILLE
BLACK HILLS    N/A       77  66  69 SE4               *N OF FT THOMAS
DRY LAKE       N/A       61  60  97 S5                *NATANES MTNS
NOON CREEK     N/A       71  63  76 SW5G10            *PINALENO MTNS
COLUMBINE      N/A       51  50  96 S2                *PINALENO MTNS
GUTHRIE        N/A       67  60  78 S7                *SW OF GUTHRIE
$$

AZZ502-503-513-220615-
LOCATION       SKY/WX    TMP DP  RH WIND       PRES   REMARKS
NOGALES        PTCLDY    74  61  63 E10G18    30.13S
SELLS          N/A       79  60  53 E5                *
SASABE         N/A       72  64  75 SE2               *ALTAR VLY
HOPKINS        N/A       63  58  83 W4G10             *SANTA RITA MTNS
CARR CYN       N/A       64  57  77 SW7G19            *W OF HEREFORD
$$

AZZ507-508-512-220615-
LOCATION       SKY/WX    TMP DP  RH WIND       PRES   REMARKS
SIERRA VISTA   CLOUDY    68  60  75 SE7       30.20S
DOUGLAS        LGT RAIN  67  65  93 CALM      30.19F
EMPIRE MTNS    N/A       68  63  85 SE3               *LAS CIENEGAS NCA
MULESHOE RANCH N/A       67  66  95 S3                *PRESERVE
HEADQUARTERS   N/A       66  62  88 CALM              *CHIRICAHUA MTNS
$$

.............................NOTES.............................
THIS IS AN AUTOMATED COLLECTIVE WITH MINIMAL QUALITY CONTROL.
PIMA CO DEQ SITES HAVE NONSTANDARD WIND SENSOR HEIGHTS.
PIMA CO DEQ SITES DO NOT REPORT WIND GUSTS.
* INDICATES WIND SENSORS LOCATED AT 20 FEET INSTEAD OF 33 FEET.
..............................KEY..............................
SKY/WX - SKY CONDITION/WEATHER
TMP    - TEMPERATURE IN FAHRENHEIT
DP     - DEWPOINT IN FAHRENHEIT
RH     - RELATIVE HUMIDITY IN PERCENT
WIND   - DIRECTION AND SPEED IN MILES PER HOUR (MPH)
VRB    - VARIABLE WIND DIRECTION
PRES   - MEAN SEA LEVEL PRESSURE IN INCHES OF MERCURY
         F - FALLING PRESSURE   R - RISING PRESSURE
         S - STEADY PRESSURE
VSB    - VISIBILITY IN MILES
HX     - HEAT INDEX IN FAHRENHEIT
WCI    - WIND CHILL INDEX IN FAHRENHEIT
N/A    - NOT AVAILABLE
AFB    - AIR FORCE BASE
         DAVIS-MONTHAN IS DAVIS-MONTHAN AIR FORCE BASE
CYN    - CANYON
MTNS   - MOUNTAINS
NCA    - NATIONAL CONSERVATION AREA
NR     - NEAR
VLY    - VALLEY
CONTL  - CONTINENTAL
PIMA CO DEQ - PIMA COUNTY DEPT OF ENVIRONMENTAL QUALITY



USA.gov is the U.S. government's official web portal to all federal, state and local government web resources and services.